Location: Unspecified
(0.0000°N, 0.0000°E)
Time: 22:12:44
(UTC+02:00)

Ariane H10 - Visible Passes

Search period start: 30 August 2014 00:00
Search period end: 09 September 2014 00:00
Orbit: 392 x 35182 km, 3.7° (Epoch: 30 August)

Date Brightness Start Highest point End Pass type
(mag) Time Alt. Az. Time Alt. Az. Time Alt. Az.
30 Aug 6.1 20:17:45 10° W 05:52:49 78° S 06:00:19 10° E visible
31 Aug 8.0 16:46:55 10° W 02:26:37 43° E 02:35:53 10° E visible
01 Sep 6.0 13:24:08 10° W 13:28:42 85° N 14:05:07 10° E visible
02 Sep 5.3 21:07:42 10° W 06:38:39 73° S 06:44:01 10° E visible
03 Sep 7.6 17:31:37 10° W 21:58:37 87° N 03:20:50 10° E visible
04 Sep 6.6 14:07:46 10° W 14:14:07 83° N 22:57:18 49° E visible
05 Sep 11.0 22:02:03 10° W 23:34:43 32° W 03:28:43 10° W visible
06 Sep 4.5 07:07:07 14° W 07:23:41 68° S 07:27:35 10° E visible
06 Sep 7.2 18:16:54 10° W 20:33:31 86° N 04:05:13 10° E visible
07 Sep 7.2 14:51:29 10° W 15:00:29 82° N 23:40:46 64° E visible
08 Sep 10.2 18:08:48 10° E 19:23:24 14° E 20:14:32 10° E visible
08 Sep 11.2 23:07:29 10° W 00:00:00 19° W 00:00:00 19° W visible
